Home   Weather   Tullahoma   Past weeks
Flag for USA

Past Weather in Tullahoma, Tennessee, USA — Yesterday and Last 2 Weeks

Now
48 °F

Sunny.


Feels Like: 45 °F
Forecast: 62 / 34 °F
Wind: 7 mph from East

Location: Deason

Current Time: Mar 23, 2019 at 10:15:41 am

Latest Report: Mar 23, 2019 at 9:35 am


Visibility: 10 mi

Pressure: 30.32 "Hg

Humidity: 50%

Dew Point: 30 °F

Location of TullahomaLocation

Past Weather in Tullahoma — Graph

°F

Tullahoma Temperature Yesterday

Maximum temperature yesterday: 66 °F (at 4:15 pm)
Minimum temperature yesterday: 28 °F (at 6:15 am)
Average temperature yesterday: 48 °F

High & Low Weather Summary for the Past Weeks

 TemperatureHumidityPressure
High72 °F (Mar 13, 2:35 pm)100% (Mar 8, 7:35 am)30.44 "Hg (Mar 8, 7:35 am)
Low25 °F (Mar 19, 6:15 am)23% (Mar 17, 4:35 pm)29.71 "Hg (Mar 9, 6:15 pm)
Average51 °F63%30.16 "Hg
* Reported Mar 8 7:15 am — Mar 23 8:35 am, Tullahoma. Weather by CustomWeather, © 2019

Note: Actual official high and low records may vary slightly from our data, if they occured in-between our weather recording intervals... More about our weather records

Advertising

Tullahoma Weather History for the Previous 24 Hours

Scroll right to see more
 ConditionsComfort  
Time TempWeatherWind HumidityBarometerVisibility
8:35 am
Sat, Mar 23
45 °FSunny.5 mph61%30.30 "Hg10 mi
8:15 am39 °FSunny.No wind87%30.30 "Hg10 mi
7:55 am36 °FSunny.No wind93%30.28 "Hg10 mi
7:35 am32 °FSunny.No wind93%30.27 "Hg10 mi
6:55 am30 °FSunny.No wind93%30.25 "Hg10 mi
6:35 am30 °FClear.No wind100%30.24 "Hg10 mi
6:15 am32 °FClear.No wind93%30.23 "Hg10 mi
5:55 am30 °FClear.No wind100%30.22 "Hg10 mi
5:35 am30 °FClear.No wind100%30.21 "Hg10 mi
5:15 am32 °FClear.No wind93%30.21 "Hg10 mi
4:55 am34 °FClear.No wind87%30.20 "Hg10 mi
4:35 am34 °FClear.No wind93%30.20 "Hg10 mi
4:15 am34 °FClear.No wind93%30.20 "Hg10 mi
3:55 am36 °FClear.No wind87%30.19 "Hg10 mi
3:35 am39 °FClear.No wind75%30.19 "Hg10 mi
3:15 am41 °FClear.5 mph70%30.19 "Hg10 mi
2:55 am39 °FClear.No wind75%30.19 "Hg10 mi
2:15 am43 °FClear.3 mph66%30.18 "Hg10 mi
1:55 am45 °FClear.5 mph61%30.18 "Hg10 mi
1:35 am43 °FClear.6 mph66%30.18 "Hg10 mi
1:15 am43 °FClear.7 mph66%30.17 "Hg10 mi
12:55 am43 °FClear.7 mph71%30.17 "Hg10 mi
12:35 am43 °FClear.9 mph71%30.16 "Hg10 mi
12:15 am45 °FClear.7 mph61%30.16 "Hg10 mi
11:55 pm
Fri, Mar 22
45 °FClear.7 mph61%30.16 "Hg10 mi
11:35 pm48 °FClear.6 mph50%30.16 "Hg10 mi
11:15 pm48 °FClear.6 mph50%30.16 "Hg10 mi
10:55 pm50 °FClear.5 mph47%30.16 "Hg10 mi
10:35 pm50 °FClear.3 mph47%30.15 "Hg10 mi
10:15 pm48 °FClear.5 mph54%30.15 "Hg10 mi
9:55 pm48 °FClear.6 mph54%30.14 "Hg10 mi
9:35 pm48 °FClear.8 mph54%30.13 "Hg10 mi
9:15 pm48 °FClear.8 mph54%30.12 "Hg10 mi
8:55 pm55 °FClear.5 mph38%30.11 "Hg10 mi
8:35 pm54 °FClear.3 mph41%30.10 "Hg10 mi
7:55 pm54 °FClear.7 mph41%30.08 "Hg10 mi
6:55 pm61 °FSunny.7 mph29%30.07 "Hg10 mi
6:35 pm63 °FSunny.8 mph27%30.07 "Hg10 mi
6:15 pm63 °FSunny.8 mph27%30.06 "Hg10 mi
5:55 pm64 °FSunny.14 mph26%30.05 "Hg10 mi
5:35 pm64 °FSunny.10 mph24%30.05 "Hg10 mi
5:15 pm64 °FSunny.13 mph26%30.04 "Hg10 mi
4:55 pm64 °FSunny.15 mph26%30.04 "Hg10 mi
4:15 pm66 °FSunny.13 mph24%30.04 "Hg10 mi
3:55 pm64 °FSunny.7 mph30%30.05 "Hg10 mi
3:15 pm64 °FSunny.14 mph28%30.05 "Hg10 mi
2:55 pm63 °FSunny.10 mph34%30.06 "Hg10 mi
2:35 pm63 °FSunny.9 mph34%30.06 "Hg10 mi
2:15 pm63 °FSunny.15 mph34%30.06 "Hg10 mi
1:55 pm61 °FSunny.13 mph36%30.07 "Hg10 mi
1:15 pm61 °FSunny.13 mph34%30.09 "Hg10 mi
12:55 pm59 °FSunny.14 mph39%30.10 "Hg10 mi
12:35 pm59 °FSunny.7 mph39%30.11 "Hg10 mi
12:15 pm57 °FSunny.9 mph41%30.12 "Hg10 mi
11:55 am57 °FSunny.9 mph44%30.12 "Hg10 mi
11:15 am55 °FSunny.9 mph47%30.13 "Hg10 mi
10:55 am54 °FSunny.9 mph51%30.14 "Hg10 mi
10:35 am52 °FSunny.7 mph54%30.14 "Hg10 mi
10:15 am52 °FSunny.8 mph54%30.13 "Hg10 mi
Weather by CustomWeather, © 2019

See weather overview